Home   Weather   Wuhan   Past weeks

Flag for China Past Weather in Wuhan, Hubei, China — Yesterday and Last 2 Weeks

Now
45 °F

Haze.


Feels Like: 41 °F
Forecast: 41 / 54 °F
Wind: 6 mph from Northeast

Location: Wuhan Airport

Current Time: Dec 6, 2016 at 12:52:31 am

Latest Report: Dec 6, 2016 at 12:00 am


Visibility: 2 mi

Pressure: 30.54 "Hg

Humidity: 61%

Dew Point: 32 °F

Location of WuhanLocation

Past Weather in Wuhan — Graph

°F

Wuhan Temperature Yesterday

Maximum temperature yesterday: 68 °F (at 3:00 pm)
Minimum temperature yesterday: 45 °F (at 6:00 am)
Average temperature yesterday: 54 °F

High & Low Weather Summary for the Past Weeks

 TemperatureHumidityPressure
High68 °F (Dec 5, 3:00 pm)100% (Nov 21, 12:00 am)30.63 "Hg (Nov 21, 12:00 am)
Low28 °F (Nov 23, 10:00 am)31% (Nov 28, 3:00 pm)29.95 "Hg (Nov 21, 2:00 am)
Average46 °F80%30.33 "Hg
* Reported Nov 20 11:00 pm — Dec 5 11:00 pm, Wuhan, Weather by CustomWeather, © 2016

Note: Actual official high and low records may vary slightly from our data, if they occured in-between our weather recording intervals... More about our weather records

Advertising

Wuhan Weather History for the Previous 24 Hours

Scroll right to see more
 ConditionsComfort  
Time TempWeatherWind HumidityBarometerVisibility
11:00 pm
Mon, Dec 5
46 °FHaze.3 mph57%30.51 "Hg2 mi
10:00 pm48 °FHaze.8 mph54%30.54 "Hg2 mi
9:00 pm50 °FHaze.8 mph54%30.51 "Hg2 mi
8:00 pm52 °FHaze.8 mph50%30.48 "Hg2 mi
7:00 pm55 °FHaze.13 mph44%30.45 "Hg2 mi
6:00 pm57 °FHaze.17 mph44%30.42 "Hg2 mi
5:00 pm61 °FHaze.17 mph36%30.36 "Hg3 mi
4:00 pm64 °FClear.22 mph37%30.30 "Hg5 mi
3:00 pm68 °FClear.10 mph46%30.24 "Hg5 mi
2:00 pm66 °FClear.10 mph52%30.21 "Hg4 mi
1:00 pm63 °FClear.6 mph64%30.21 "Hg4 mi
12:00 pm61 °FClear.6 mph68%30.21 "Hg4 mi
11:00 am59 °FClear.3 mph68%30.21 "Hg4 mi
10:00 am59 °FHaze.1 mph72%30.18 "Hg2 mi
9:00 am54 °FFog.1 mph82%30.18 "Hg1 mi
8:00 am48 °FFog.3 mph94%30.12 "Hg1 mi
7:00 am46 °FFog.1 mph100%30.09 "Hg2 mi
6:00 am45 °FFog.3 mph100%30.09 "Hg2 mi
5:00 am48 °FFog.6 mph94%30.07 "Hg2 mi
4:00 am50 °FFog.6 mph94%30.09 "Hg2 mi
3:00 am50 °FClear.3 mph88%30.09 "Hg4 mi
2:00 am50 °FClear.3 mph94%30.09 "Hg4 mi
1:00 am46 °FClear.1 mph100%30.12 "Hg4 mi
12:00 am48 °FClear.1 mph94%30.12 "Hg5 mi
Weather by CustomWeather, © 2016

See weather overviewHow to use our weather pages